Time,TemperatureF,DewpointF,PressureIn,WindDirection,WindDirectionDegrees,WindSpeedMPH,WindSpeedGustMPH,Humidity,HourlyPrecipIn,Conditions,Clouds,dailyrainin,SoftwareType,DateUTC
2013-01-23 00:02:00,-1.0,-7.0,-100.00,SSW,200,0.0,2.0,75,-99.99,,,-99.99,,2013-01-23 06:02:00,
2013-01-23 00:12:00,-1.0,-7.0,-100.00,SSW,200,0.0,2.0,75,-99.99,,,-99.99,,2013-01-23 06:12:00,
2013-01-23 00:22:00,-1.0,-7.0,-100.00,SSW,200,0.0,2.0,75,-99.99,,,-99.99,,2013-01-23 06:22:00,
2013-01-23 00:32:00,-1.0,-7.0,-100.00,SSW,200,0.0,2.0,75,-99.99,,,-99.99,,2013-01-23 06:32:00,
2013-01-23 01:32:00,2.0,-4.0,-100.00,WSW,240,2.0,5.0,75,-99.99,,,-99.99,,2013-01-23 07:32:00,
2013-01-23 01:53:00,2.0,-4.0,-100.00,WSW,240,2.0,5.0,75,-99.99,,,-99.99,,2013-01-23 07:53:00,
2013-01-23 02:02:00,2.0,-4.0,-100.00,WSW,240,2.0,5.0,75,-99.99,,,-99.99,,2013-01-23 08:02:00,
2013-01-23 02:13:00,2.0,-4.0,-100.00,WSW,240,2.0,5.0,75,-99.99,,,-99.99,,2013-01-23 08:13:00,
2013-01-23 02:22:00,2.0,-4.0,-100.00,WSW,240,2.0,5.0,75,-99.99,,,-99.99,,2013-01-23 08:22:00,
2013-01-23 02:53:00,3.0,-3.0,-100.00,SW,225,0.0,2.0,75,-99.99,,,-99.99,,2013-01-23 08:53:00,
2013-01-23 03:03:00,3.0,-3.0,-100.00,SW,225,0.0,2.0,75,-99.99,,,-99.99,,2013-01-23 09:03:00,
2013-01-23 03:12:00,3.0,-3.0,-100.00,SW,225,0.0,2.0,75,-99.99,,,-99.99,,2013-01-23 09:12:00,
2013-01-23 03:22:00,3.0,-3.0,-100.00,SW,225,0.0,2.0,75,-99.99,,,-99.99,,2013-01-23 09:22:00,
2013-01-23 03:32:00,3.0,-3.0,-100.00,SW,225,0.0,2.0,75,-99.99,,,-99.99,,2013-01-23 09:32:00,
2013-01-23 04:03:00,4.0,-2.0,-100.00,South,170,0.0,1.0,75,-99.99,,,-99.99,,2013-01-23 10:03:00,
2013-01-23 04:12:00,4.0,-2.0,-100.00,South,170,0.0,1.0,75,-99.99,,,-99.99,,2013-01-23 10:12:00,
2013-01-23 04:23:00,4.0,-2.0,-100.00,South,170,0.0,1.0,75,-99.99,,,-99.99,,2013-01-23 10:23:00,
2013-01-23 04:33:00,4.0,-2.0,-100.00,South,170,0.0,1.0,75,-99.99,,,-99.99,,2013-01-23 10:33:00,
2013-01-23 05:32:00,6.0,0.0,-100.00,SE,145,0.0,2.0,77,-99.99,,,-99.99,,2013-01-23 11:32:00,
2013-01-23 05:53:00,6.0,0.0,-100.00,SE,145,0.0,2.0,77,-99.99,,,-99.99,,2013-01-23 11:53:00,
2013-01-23 06:03:00,6.0,0.0,-100.00,SE,145,0.0,2.0,77,-99.99,,,-99.99,,2013-01-23 12:03:00,
2013-01-23 06:12:00,6.0,0.0,-100.00,SE,145,0.0,2.0,77,-99.99,,,-99.99,,2013-01-23 12:12:00,
2013-01-23 06:22:00,6.0,0.0,-100.00,SE,145,0.0,2.0,77,-99.99,,,-99.99,,2013-01-23 12:22:00,
2013-01-23 06:53:00,6.0,1.0,-100.00,SSE,165,1.0,4.0,80,-99.99,,,-99.99,,2013-01-23 12:53:00,
2013-01-23 07:04:00,6.0,1.0,-100.00,SSE,165,1.0,4.0,80,-99.99,,,-99.99,,2013-01-23 13:04:00,
2013-01-23 07:13:00,6.0,1.0,-100.00,SSE,165,1.0,4.0,80,-99.99,,,-99.99,,2013-01-23 13:13:00,
2013-01-23 07:23:00,6.0,1.0,-100.00,SSE,165,1.0,4.0,80,-99.99,,,-99.99,,2013-01-23 13:23:00,
2013-01-23 07:33:00,6.0,1.0,-100.00,SSE,165,1.0,4.0,80,-99.99,,,-99.99,,2013-01-23 13:33:00,
2013-01-23 08:03:00,7.0,2.0,-100.00,SE,135,0.0,1.0,82,-99.99,,,-99.99,,2013-01-23 14:03:00,
2013-01-23 08:12:00,7.0,2.0,-100.00,SE,135,0.0,1.0,82,-99.99,,,-99.99,,2013-01-23 14:12:00,
2013-01-23 08:23:00,7.0,2.0,-100.00,SE,135,0.0,1.0,82,-99.99,,,-99.99,,2013-01-23 14:23:00,
2013-01-23 08:33:00,7.0,2.0,-100.00,SE,135,0.0,1.0,82,-99.99,,,-99.99,,2013-01-23 14:33:00,
2013-01-23 09:03:00,8.0,4.0,-100.00,South,175,2.0,3.0,84,-99.99,,,-99.99,,2013-01-23 15:03:00,
2013-01-23 09:12:00,8.0,4.0,-100.00,South,175,2.0,3.0,84,-99.99,,,-99.99,,2013-01-23 15:12:00,
2013-01-23 09:23:00,8.0,4.0,-100.00,South,175,2.0,3.0,84,-99.99,,,-99.99,,2013-01-23 15:23:00,
2013-01-23 09:33:00,8.0,4.0,-100.00,South,175,2.0,3.0,84,-99.99,,,-99.99,,2013-01-23 15:33:00,
2013-01-23 10:03:00,11.0,6.0,-100.00,WSW,255,4.0,7.0,83,-99.99,,,-99.99,,2013-01-23 16:03:00,
2013-01-23 10:12:00,11.0,6.0,-100.00,WSW,255,4.0,7.0,83,-99.99,,,-99.99,,2013-01-23 16:12:00,
2013-01-23 10:23:00,11.0,6.0,-100.00,WSW,255,4.0,7.0,83,-99.99,,,-99.99,,2013-01-23 16:23:00,
2013-01-23 10:33:00,11.0,6.0,-100.00,WSW,255,4.0,7.0,83,-99.99,,,-99.99,,2013-01-23 16:33:00,
2013-01-23 11:03:00,13.0,8.0,-100.00,WSW,245,5.0,10.0,82,-99.99,,,-99.99,,2013-01-23 17:03:00,
2013-01-23 11:12:00,13.0,8.0,-100.00,WSW,245,5.0,10.0,82,-99.99,,,-99.99,,2013-01-23 17:12:00,
2013-01-23 11:23:00,13.0,8.0,-100.00,WSW,245,5.0,10.0,82,-99.99,,,-99.99,,2013-01-23 17:23:00,
2013-01-23 11:33:00,13.0,8.0,-100.00,WSW,245,5.0,10.0,82,-99.99,,,-99.99,,2013-01-23 17:33:00,
2013-01-23 12:03:00,15.0,9.0,-100.00,WNW,295,6.0,12.0,77,-99.99,,,-99.99,,2013-01-23 18:03:00,
2013-01-23 12:12:00,15.0,9.0,-100.00,WNW,295,6.0,12.0,77,-99.99,,,-99.99,,2013-01-23 18:12:00,
2013-01-23 12:23:00,15.0,9.0,-100.00,WNW,295,6.0,12.0,77,-99.99,,,-99.99,,2013-01-23 18:23:00,
2013-01-23 12:33:00,15.0,9.0,-100.00,WNW,295,6.0,12.0,77,-99.99,,,-99.99,,2013-01-23 18:33:00,
2013-01-23 13:03:00,19.0,11.0,-100.00,West,280,5.0,12.0,69,-99.99,,,-99.99,,2013-01-23 19:03:00,
2013-01-23 13:13:00,19.0,11.0,-100.00,West,280,5.0,12.0,69,-99.99,,,-99.99,,2013-01-23 19:13:00,
2013-01-23 13:23:00,19.0,11.0,-100.00,West,280,5.0,12.0,69,-99.99,,,-99.99,,2013-01-23 19:23:00,
2013-01-23 13:33:00,19.0,11.0,-100.00,West,280,5.0,12.0,69,-99.99,,,-99.99,,2013-01-23 19:33:00,
2013-01-23 14:03:00,16.0,7.0,-100.00,NW,310,14.0,24.0,66,-99.99,,,-99.99,,2013-01-23 20:03:00,
2013-01-23 14:13:00,16.0,7.0,-100.00,NW,310,14.0,24.0,66,-99.99,,,-99.99,,2013-01-23 20:13:00,
2013-01-23 14:23:00,16.0,7.0,-100.00,NW,310,14.0,24.0,66,-99.99,,,-99.99,,2013-01-23 20:23:00,
2013-01-23 14:33:00,16.0,7.0,-100.00,NW,310,14.0,24.0,66,-99.99,,,-99.99,,2013-01-23 20:33:00,
2013-01-23 15:03:00,15.0,6.0,-100.00,NW,320,9.0,24.0,66,-99.99,,,-99.99,,2013-01-23 21:03:00,
2013-01-23 15:12:00,15.0,6.0,-100.00,NW,320,9.0,24.0,66,-99.99,,,-99.99,,2013-01-23 21:12:00,
2013-01-23 15:23:00,15.0,6.0,-100.00,NW,320,9.0,24.0,66,-99.99,,,-99.99,,2013-01-23 21:23:00,
2013-01-23 15:33:00,15.0,6.0,-100.00,NW,320,9.0,24.0,66,-99.99,,,-99.99,,2013-01-23 21:33:00,
2013-01-23 16:02:00,13.0,4.0,-100.00,NW,325,14.0,33.0,66,-99.99,,,-99.99,,2013-01-23 22:02:00,
2013-01-23 16:12:00,13.0,4.0,-100.00,NW,325,14.0,33.0,66,-99.99,,,-99.99,,2013-01-23 22:12:00,
2013-01-23 16:23:00,13.0,4.0,-100.00,NW,325,14.0,33.0,66,-99.99,,,-99.99,,2013-01-23 22:23:00,
2013-01-23 16:33:00,13.0,4.0,-100.00,NW,325,14.0,33.0,66,-99.99,,,-99.99,,2013-01-23 22:33:00,
2013-01-23 17:03:00,10.0,2.0,-100.00,NNW,345,6.0,17.0,69,-99.99,,,-99.99,,2013-01-23 23:03:00,
2013-01-23 17:13:00,10.0,2.0,-100.00,NNW,345,6.0,17.0,69,-99.99,,,-99.99,,2013-01-23 23:13:00,
2013-01-23 17:23:00,10.0,2.0,-100.00,NNW,345,6.0,17.0,69,-99.99,,,-99.99,,2013-01-23 23:23:00,
2013-01-23 17:33:00,10.0,2.0,-100.00,NNW,345,6.0,17.0,69,-99.99,,,-99.99,,2013-01-23 23:33:00,
2013-01-23 18:03:00,6.0,-4.0,-100.00,NNW,340,9.0,22.0,62,-99.99,,,-99.99,,2013-01-24 00:03:00,
2013-01-23 18:12:00,6.0,-4.0,-100.00,NNW,340,9.0,22.0,62,-99.99,,,-99.99,,2013-01-24 00:12:00,
2013-01-23 18:22:00,6.0,-4.0,-100.00,NNW,340,9.0,22.0,62,-99.99,,,-99.99,,2013-01-24 00:22:00,
2013-01-23 18:32:00,6.0,-4.0,-100.00,NNW,340,9.0,22.0,62,-99.99,,,-99.99,,2013-01-24 00:32:00,
2013-01-23 19:03:00,3.0,-9.0,-100.00,NNW,340,10.0,22.0,58,-99.99,,,-99.99,,2013-01-24 01:03:00,
2013-01-23 19:12:00,3.0,-9.0,-100.00,NNW,340,10.0,22.0,58,-99.99,,,-99.99,,2013-01-24 01:12:00,
2013-01-23 19:23:00,3.0,-9.0,-100.00,NNW,340,10.0,22.0,58,-99.99,,,-99.99,,2013-01-24 01:23:00,
2013-01-23 19:33:00,3.0,-9.0,-100.00,NNW,340,10.0,22.0,58,-99.99,,,-99.99,,2013-01-24 01:33:00,
2013-01-23 20:02:00,0.0,-11.0,-100.00,NNW,335,6.0,15.0,59,-99.99,,,-99.99,,2013-01-24 02:02:00,
2013-01-23 20:12:00,0.0,-11.0,-100.00,NNW,335,6.0,15.0,59,-99.99,,,-99.99,,2013-01-24 02:12:00,
2013-01-23 20:22:00,0.0,-11.0,-100.00,NNW,335,6.0,15.0,59,-99.99,,,-99.99,,2013-01-24 02:22:00,
2013-01-23 20:33:00,0.0,-11.0,-100.00,NNW,335,6.0,15.0,59,-99.99,,,-99.99,,2013-01-24 02:33:00,
2013-01-23 21:02:00,-1.0,-12.0,-100.00,North,350,5.0,12.0,59,-99.99,,,-99.99,,2013-01-24 03:02:00,
2013-01-23 21:12:00,-1.0,-12.0,-100.00,North,350,5.0,12.0,59,-99.99,,,-99.99,,2013-01-24 03:12:00,
2013-01-23 21:22:00,-1.0,-12.0,-100.00,North,350,5.0,12.0,59,-99.99,,,-99.99,,2013-01-24 03:22:00,
2013-01-23 21:53:00,-3.0,-14.0,-100.00,NNW,335,6.0,14.0,60,-99.99,,,-99.99,,2013-01-24 03:53:00,
2013-01-23 22:02:00,-3.0,-14.0,-100.00,NNW,335,6.0,14.0,60,-99.99,,,-99.99,,2013-01-24 04:02:00,
2013-01-23 22:12:00,-3.0,-14.0,-100.00,NNW,335,6.0,14.0,60,-99.99,,,-99.99,,2013-01-24 04:12:00,
2013-01-23 22:22:00,-3.0,-14.0,-100.00,NNW,335,6.0,14.0,60,-99.99,,,-99.99,,2013-01-24 04:22:00,
2013-01-23 22:32:00,-3.0,-14.0,-100.00,NNW,335,6.0,14.0,60,-99.99,,,-99.99,,2013-01-24 04:32:00,
2013-01-23 22:53:00,-4.0,-14.0,-100.00,NNW,340,6.0,12.0,62,-99.99,,,-99.99,,2013-01-24 04:53:00,
2013-01-23 23:03:00,-4.0,-14.0,-100.00,NNW,340,6.0,12.0,62,-99.99,,,-99.99,,2013-01-24 05:03:00,
2013-01-23 23:12:00,-4.0,-14.0,-100.00,NNW,340,6.0,12.0,62,-99.99,,,-99.99,,2013-01-24 05:12:00,
2013-01-23 23:22:00,-4.0,-14.0,-100.00,NNW,340,6.0,12.0,62,-99.99,,,-99.99,,2013-01-24 05:22:00,
2013-01-23 23:33:00,-4.0,-14.0,-100.00,NNW,340,6.0,12.0,62,-99.99,,,-99.99,,2013-01-24 05:33:00,